Probability
0 0 0 0 0 0 0 0 0 0 0 0 0 0 0 0 0 0 0 0 0 0 0 0 0 0 0 0 0 0 0 0 0 0 0 0 1 1
0 0 0 0 0 0 0 0 0 0 0 0 0 0 0 0 0 0 0 0 0 0 0 0 0 0 0 0 0 0 0 0 0 0 0 0 0 1
0 0 0 0 0 0 0 0 0 0 0 0 0 0 0 0 0 0 0 0 0 0 0 0 0 0 0 0 0 0 0 0 0 0 0 0 0 0
0 0 0 0 0 0 0 0 0 0 0 0 0 0 0 0 0 0 0 0 0 0 0 0 0 0 0 0 0 0 0 0 0 0 0 0 0 0
0 0 0 0 0 0 0 0 0 0 0 0 0 0 0 0 0 0 0 0 0 0 0 0 0 0 0 0 0 0 0 0 0 0 0 0 0 0
0 0 0 0 0 0 0 0 0 0 0 0 0 0 0 0 0 0 0 0 0 0 0 0 0 0 0 0 0 0 0 0 0 0 0 0 0 0
0 0 0 0 0 0 0 0 0 0 0 0 0 0 0 0 0 0 0 0 0 0 0 0 0 0 0 0 0 0 0 0 0 0 0 0 0 0
0 0 0 0 0 0 0 0 0 0 0 0 0 0 0 0 0 0 0 0 0 0 0 0 0 0 0 0 0 0 0 0 0 0 0 0 0 0
0 0 0 0 0 0 0 0 0 0 0 0 0 0 0 0 0 0 0 0 0 0 0 0 0 0 0 0 0 0 0 0 0 0 0 0 0 0
0 0 0 0 0 0 0 0 0 0 0 0 0 0 0 0 0 0 0 0 0 0 0 0 0 0 0 0 0 0 0 0 0 0 0 0 0 0
0 0 0 0 0 0 0 0 0 0 0 0 0 0 0 0 0 0 0 0 0 0 0 0 0 0 0 0 0 0 0 0 0 0 0 0 0 0
0 0 0 0 0 0 0 0 0 0 0 0 0 0 0 0 0 0 0 0 0 0 0 0 0 0 0 0 0 0 0 0 0 0 0 0 0 0
0 0 0 0 0 0 0 0 0 0 0 0 0 0 0 0 0 0 0 0 0 0 0 0 0 0 0 0 0 0 0 0 0 0 0 0 0 0
0 0 0 0 0 0 0 0 0 0 0 0 0 0 0 0 0 0 0 0 0 0 0 0 0 0 0 0 0 0 0 0 0 0 0 0 0 0
0 0 0 0 0 0 0 0 0 0 0 0 0 0 0 0 0 0 0 0 0 0 0 0 0 0 0 0 0 0 0 0 0 0 0 0 0 0
0 0 0 0 0 0 0 0 0 0 0 0 0 0 0 0 0 0 0 0 0 0 0 0 0 0 0 0 0 0 0 0 0 0 0 0 0 0
0 0 0 0 0 0 0 0 0 0 0 0 0 0 0 0 0 0 0 0 0 0 0 0 0 0 0 0 0 0 0 0 0 0 0 0 0 0
0 0 0 0 0 0 0 0 0 0 0 0 0 0 0 0 0 0 0 0 0 0 0 0 0 0 0 0 0 0 0 0 0 0 0 0 0 0
0 0 0 0 0 0 0 0 0 0 0 0 0 0 0 0 0 0 0 0 0 0 0 0 0 0 0 0 0 0 0 0 0 0 0 0 0 0
0 0 0 0 0 0 0 0 0 0 0 0 0 0 0 0 0 0 0 0 0 0 0 0 0 0 0 0 0 0 0 0 0 0 0 0 0 0
0 0 0 0 0 0 0 0 0 0 0 0 0 0 0 0 0 0 0 0 0 0 0 0 0 0 0 0 0 0 0 0 0 0 0 0 0 0
0 0 0 0 0 0 0 0 0 0 0 0 0 0 0 0 0 0 0 0 0 0 0 0 0 0 0 0 0 0 0 0 0 0 0 0 0 0
0 0 0 0 0 0 0 0 0 0 0 0 0 0 0 0 0 0 0 0 0 0 0 0 0 0 0 0 0 0 0 0 0 0 0 0 0 0
Wind_Speed
8 9 7 6 6 6 6 6 6 7 7 5 3 4 4 4 4 5 6 7 8 9 9 8 8 9 8 9 9 9 9 10 10 12 13 13 13 13
6 8 8 6 6 6 6 6 7 7 7 5 4 4 4 4 5 6 6 7 8 8 8 8 8 8 7 8 8 8 9 9 10 10 12 13 13 13
8 9 9 8 6 6 6 6 7 7 8 6 4 4 5 5 5 5 4 5 5 7 8 8 8 8 8 8 8 8 9 9 10 10 11 12 12 12
9 9 10 7 8 7 6 7 7 7 7 7 5 4 6 6 5 5 4 4 4 5 7 8 8 8 8 8 8 8 8 9 9 10 10 11 12 12
9 9 9 9 9 7 7 7 6 6 6 6 5 4 4 4 4 4 5 4 4 4 6 7 8 8 8 8 8 8 8 8 9 9 9 10 11 10
8 9 9 9 9 8 7 7 6 6 6 5 4 4 3 4 4 4 4 4 4 3 4 5 6 7 8 8 7 6 6 7 8 9 9 9 9 10
8 9 9 9 9 8 6 6 6 5 5 5 5 4 4 3 4 3 4 4 4 3 3 3 4 3 4 5 5 5 6 6 7 8 8 8 8 9
8 8 7 7 7 8 8 7 7 7 6 6 5 6 6 5 4 4 4 4 4 2 3 4 3 4 3 3 4 5 5 5 6 6 7 7 7 7
7 7 5 5 6 6 6 7 8 8 9 8 8 7 6 5 5 5 5 5 5 3 3 4 3 4 3 4 6 6 6 6 5 5 6 6 6 6
6 6 6 6 5 5 5 5 5 6 7 6 6 6 5 5 5 5 5 3 3 2 3 3 3 3 3 3 5 6 5 5 6 6 6 6 6 6
5 5 5 6 6 5 5 4 4 4 3 4 5 4 4 4 3 2 3 3 3 2 2 2 2 3 3 3 3 5 5 5 6 6 6 6 6 6
4 4 5 5 5 5 5 4 4 4 2 2 1 1 1 2 3 4 4 4 2 2 1 1 2 2 2 2 3 3 3 4 5 5 5 5 6 4
3 3 2 3 3 3 4 4 4 3 2 1 1 1 1 1 1 2 2 2 2 2 2 2 2 2 2 2 3 3 3 3 3 3 4 5 5 4
3 3 2 2 2 2 2 2 1 1 1 1 1 1 1 1 1 1 1 1 1 2 2 2 2 2 2 2 2 2 2 2 2 3 3 3 4 4
2 2 2 1 1 0 2 1 1 0 0 1 1 1 1 1 0 0 1 1 2 1 0 1 1 1 1 1 2 2 2 3 2 2 3 3 3 3
1 0 1 2 2 2 2 1 1 0 0 1 1 1 1 0 1 0 0 0 1 1 2 2 1 1 1 1 1 2 2 2 2 3 3 3 3 3
1 1 1 1 1 1 1 1 1 1 1 1 1 0 0 0 0 0 0 0 0 0 1 1 1 1 1 1 1 2 2 2 2 3 3 3 3 3
1 1 1 1 1 1 1 1 1 1 1 1 1 1 1 1 0 0 0 0 0 0 1 1 1 1 1 1 2 2 2 2 2 3 3 3 3 3
0 1 1 1 1 0 0 1 1 1 1 1 1 1 1 1 1 1 1 1 1 0 1 1 1 0 0 1 1 1 2 2 3 2 2 3 3 4
1 1 1 1 1 1 1 1 1 1 1 1 1 1 1 1 1 1 1 1 1 0 0 0 1 1 1 1 1 2 3 2 2 3 3 3 3 4
1 1 1 1 1 1 1 1 1 1 1 1 1 1 1 1 1 1 1 1 1 1 0 1 1 2 1 0 1 1 2 3 4 3 3 2 2 2
1 2 1 1 1 1 1 1 1 1 1 1 1 1 1 1 1 1 1 1 1 1 0 1 1 1 0 0 0 1 2 3 3 4 4 3 2 2
2 2 2 1 1 1 1 2 2 2 1 1 1 1 1 1 1 1 1 1 1 1 0 0 0 0 0 0 0 1 2 2 2 2 2 3 3 3
Wind_Direction
243 244 242 240 240 239 242 240 245 261 263 255 256 253 261 266 257 260 265 259 262 264 265 265 268 272 266 265 270 272 273 273 275 278 280 276 276 276
243 246 248 242 239 239 239 242 243 252 263 264 265 266 261 264 257 262 264 264 257 255 259 263 269 273 270 271 272 273 272 275 277 279 282 283 278 278
243 244 246 247 242 237 237 240 240 242 255 269 268 263 259 259 259 264 266 263 258 252 256 261 269 273 271 275 275 276 272 271 275 278 282 287 284 280
246 245 246 245 246 243 238 240 242 242 248 259 264 261 262 256 260 263 269 270 268 255 256 259 266 273 273 273 274 274 277 274 274 278 282 285 286 284
251 248 250 248 246 247 244 243 243 243 243 250 259 264 268 257 263 269 269 270 272 266 259 259 265 271 273 271 272 275 276 279 279 278 283 286 285 283
255 252 248 246 247 248 245 245 246 242 239 242 248 254 259 257 254 259 266 265 273 276 269 270 273 275 270 272 274 279 282 280 281 283 282 284 285 284
257 254 251 248 249 248 246 245 243 242 239 239 245 248 246 243 245 250 262 270 277 275 277 270 275 278 274 273 275 282 287 292 291 287 286 286 286 288
257 255 253 246 245 249 252 252 249 244 241 240 243 241 245 247 249 245 246 259 267 252 269 270 271 272 279 285 295 292 290 296 299 298 294 296 297 296
260 255 251 249 248 249 252 252 251 252 249 246 241 243 242 238 234 241 244 252 265 256 262 263 266 270 273 279 283 287 294 301 301 298 301 305 306 305
260 254 252 250 247 247 248 251 256 255 252 248 250 249 245 240 235 239 245 262 287 268 255 260 267 275 281 270 269 281 288 297 303 301 301 304 304 305
266 259 253 252 246 242 241 246 262 274 278 270 279 273 256 243 238 226 228 240 270 272 277 271 281 291 278 269 273 280 288 297 299 299 299 303 308 304
269 260 249 250 249 242 237 236 246 264 275 288 301 303 269 219 224 236 226 228 252 249 237 262 274 293 280 267 270 281 284 293 300 300 302 306 314 305
274 269 258 248 251 244 247 246 251 269 262 261 280 291 299 288 278 281 273 246 241 245 222 237 259 267 265 282 282 283 292 304 302 292 288 306 318 320
275 273 271 265 267 261 246 256 274 277 249 253 268 280 276 275 291 298 322 319 303 262 230 240 245 244 258 281 289 301 306 310 314 313 309 317 318 317
284 297 316 338 336 341 68 44 17 290 241 246 240 272 281 267 267 68 51 43 31 10 305 291 271 245 247 258 277 292 308 313 316 319 323 324 316 309
314 19 66 66 54 38 42 45 19 10 322 286 288 283 278 224 187 210 200 130 55 21 17 4 330 256 261 270 267 283 299 300 316 324 326 322 318 311
335 351 8 29 34 31 26 16 11 21 9 341 313 279 252 200 190 238 217 263 214 280 7 15 20 21 341 299 267 278 296 306 311 322 321 319 320 320
359 332 337 342 353 1 2 355 354 354 336 311 281 250 212 191 187 169 166 158 123 54 348 334 331 346 30 7 317 278 300 308 313 315 308 307 315 325
322 304 308 300 304 307 304 312 315 322 308 274 256 250 225 192 186 179 167 140 131 74 359 337 305 328 14 340 348 323 303 311 314 312 312 308 303 312
311 291 289 292 289 279 276 285 296 305 291 273 257 236 196 174 175 180 175 158 156 124 25 357 331 319 308 308 305 318 313 306 310 312 314 310 303 301
301 296 288 283 282 283 283 280 270 260 269 264 239 219 189 176 181 183 163 150 177 178 203 316 331 327 313 303 305 327 344 334 327 317 314 308 315 329
294 286 285 284 281 274 273 267 258 252 250 252 248 223 205 191 186 182 169 165 183 194 271 2 12 6 4 138 325 334 340 343 328 327 336 332 312 316
299 290 288 286 280 272 263 258 258 255 253 254 255 240 212 194 191 186 174 166 163 158 130 59 26 27 31 35 343 338 342 340 341 351 358 358 349 327